This demonstration page uses our WeatherBlox Daily Observations layout. Learn more.

39.92423, -83.80882

Hourly Observations for May 19, 2016

Temp ( °F °C ) Dew Point ( °F °C ) Humidity (%) Winds ( mph kmh ) Pressure ( in mb ) Visibility ( mi km ) Precip ( " mm )
12:56 am 00:56 Clear 49 9.4 38 3.3 66 66 N 5 7 30.18 1022 10 16.0934 0 0
1:56 am 01:56 Clear 48 8.8 39 3.8 71 71 NNW 5 7 30.18 1022 10 16.0934 0 0
2:56 am 02:56 Mostly Cloudy 45 7.2 40 4.4 83 83 N 5 7 30.17 1022 10 16.0934 0 0
3:56 am 03:56 Mostly Cloudy 48 8.8 41 5 77 77 N 3 6 30.17 1022 10 16.0934 0 0
4:56 am 04:56 Clear 45 7.2 39 3.8 79 79 N 6 9 30.17 1022 10 16.0934 0 0
5:56 am 05:56 Clear 44 6.6 38 3.3 80 80 NNE 5 7 30.17 1022 10 16.0934 0 0
6:56 am 06:56 Sunny 43 6.1 39 3.8 85 85 N 3 6 30.19 1022 10 16.0934 0 0
7:56 am 07:56 Sunny 50 10 42 5.5 74 74 NNE 7 11 30.2 1023 10 16.0934 0 0
8:56 am 08:56 Sunny 55 12.7 42 5.5 62 62 NE 7 11 30.22 1023 10 16.0934 0 0
9:56 am 09:56 Sunny 61 16.1 40 4.4 46 46 NE 12 19 30.22 1024 10 16.0934 0 0
10:56 am 10:56 Sunny 64 17.7 41 5 43 43 ENE 10 17 30.22 1024 10 16.0934 0 0
11:56 am 11:56 Sunny 65 18.3 42 5.5 43 43 ENE 10 17 30.22 1023 10 16.0934 0 0
12:56 pm 12:56 Sunny 67 19.4 41 5 39 39 VRB 6 9 30.21 1023 10 16.0934 0 0
1:56 pm 13:56 Sunny 68 20 40 4.4 36 36 NNE 8 13 30.2 1023 10 16.0934 0 0
2:56 pm 14:56 Sunny 69 20.5 41 5 36 36 N 8 13 30.19 1022 10 16.0934 0 0
3:56 pm 15:56 Sunny 71 21.6 41 5 34 34 VRB 5 7 30.16 1021 10 16.0934 0 0
4:56 pm 16:56 Sunny 71 21.6 42 5.5 35 35 NE 8 13 30.16 1021 10 16.0934 0 0
5:56 pm 17:56 Sunny 71 21.6 41 5 34 34 VRB 5 7 30.16 1022 10 16.0934 0 0
6:56 pm 18:56 Sunny 70 21.1 41 5 35 35 ENE 9 15 30.17 1022 10 16.0934 0 0
7:56 pm 19:56 Sunny 67 19.4 42 5.5 40 40 ENE 7 11 30.16 1021 10 16.0934 0 0
8:56 pm 20:56 Clear 60 15.5 42 5.5 52 52 NE 7 11 30.16 1022 10 16.0934 0 0
9:56 pm 21:56 Clear 57 13.8 42 5.5 58 58 NE 7 11 30.19 1022 10 16.0934 0 0
10:56 pm 22:56 Clear 54 12.2 43 6.1 67 67 NE 8 13 30.19 1022 10 16.0934 0 0
11:56 pm 23:56 Clear 51 10.5 42 5.5 71 71 ENE 9 15 30.18 1022 10 16.0934 0 0

Powered by AerisWeather